FW6411 Weather Reports


time (UTC)temp
C
wind
direction
speed
KPH
gust
KPH
rain 1hr
cm
rain 24hr
cm
rain mn
cm
humidity
%
barometer
mb
20260505041558 7 169 1.6 8.0 0.00 0.33 0.00 74 1006.0
20260505041051 7 229 1.6 8.0 0.00 0.33 0.00 74 1006.0
20260505040550 8 189 3.2 8.0 0.00 0.33 0.00 73 1005.9
20260505040053 8 208 1.6 11.3 0.00 0.33 0.00 73 1005.8
20260505035545 8 175 4.8 14.5 0.00 0.33 0.00 73 1005.7
20260505035048 8 216 4.8 14.5 0.00 0.33 0.00 72 1005.5
20260505034544 8 164 6.4 12.9 0.00 0.33 0.00 72 1005.4
20260505034047 8 268 4.8 17.7 0.00 0.33 0.00 72 1005.3
20260505033541 8 209 8.0 20.9 0.00 0.33 0.00 71 1005.2
20260505033041 8 210 11.3 20.9 0.00 0.33 0.00 71 1005.1
20260505032539 8 200 9.7 20.9 0.00 0.33 0.00 71 1005.0
20260505032037 8 160 11.3 20.9 0.00 0.33 0.00 71 1004.9
20260505031542 8 201 12.9 20.9 0.00 0.33 0.00 70 1004.7
20260505031034 8 165 11.3 20.9 0.00 0.33 0.00 70 1004.6
20260505030534 8 201 12.9 20.9 0.00 0.33 0.00 69 1004.7
20260505030031 8 220 12.9 24.1 0.00 0.33 0.00 70 1004.6
20260505025530 8 193 12.9 24.1 0.00 0.33 0.33 70 1004.5
20260505025028 8 195 14.5 25.7 0.00 0.33 0.33 70 1004.5
20260505024530 8 185 16.1 25.7 0.00 0.33 0.33 69 1004.4
20260505024028 8 213 12.9 22.5 0.00 0.33 0.33 69 1004.4
20260505023526 8 188 11.3 17.7 0.00 0.33 0.33 69 1004.4
20260505023026 8 198 11.3 17.7 0.00 0.33 0.33 69 1004.4
20260505022525 8 168 11.3 19.3 0.00 0.33 0.33 68 1004.4
20260505022025 8 237 12.9 24.1 0.00 0.33 0.33 68 1004.3
20260505021523 8 204 12.9 24.1 0.00 0.33 0.33 67 1004.2
20260505021022 8 218 12.9 22.5 0.00 0.33 0.33 66 1004.2
20260505020522 8 202 9.7 24.1 0.00 0.33 0.33 65 1004.1
20260505020021 8 203 14.5 24.1 0.00 0.33 0.33 64 1004.0
20260505015521 8 224 9.7 25.7 0.00 0.38 0.33 64 1003.9
20260505015020 9 184 9.7 25.7 0.00 0.38 0.33 64 1004.0
20260505014522 9 230 11.3 22.5 0.00 0.38 0.33 64 1004.0
20260505014018 9 229 12.9 20.9 0.00 0.38 0.33 65 1004.0
20260505013517 9 171 9.7 19.3 0.00 0.38 0.33 65 1004.0
20260505013017 10 220 11.3 19.3 0.00 0.38 0.33 64 1004.0
20260505012517 10 206 9.7 20.9 0.00 0.38 0.33 64 1004.0
20260505012016 10 218 11.3 20.9 0.00 0.38 0.33 62 1004.1
20260505011516 10 206 8.0 19.3 0.00 0.38 0.33 62 1004.0
20260505011014 10 166 11.3 20.9 0.00 0.38 0.33 61 1004.0
20260505010514 10 201 8.0 22.5 0.00 0.38 0.33 60 1004.0
20260505010016 10 187 6.4 22.5 0.00 0.38 0.33 60 1004.0
20260505005512 10 140 6.4 25.7 0.00 0.58 0.33 59 1004.1
20260505005012 10 116 9.7 25.7 0.00 0.58 0.33 58 1003.9
20260505004512 10 221 9.7 19.3 0.00 0.58 0.33 58 1003.9
20260505004011 10 237 8.0 24.1 0.00 0.58 0.33 59 1004.0
20260505003513 10 175 11.3 25.7 0.00 0.58 0.33 58 1004.0
20260505003009 10 157 8.0 25.7 0.00 0.58 0.33 58 1004.0
20260505002509 10 202 4.8 20.9 0.00 0.58 0.33 58 1003.8
20260505002009 11 162 4.8 22.5 0.00 0.58 0.33 57 1003.7
20260505001508 11 210 6.4 37.0 0.00 0.58 0.33 56 1003.6
20260505001008 10 185 14.5 37.0 0.00 0.58 0.33 54 1003.7
20260505000507 10 223 11.3 30.6 0.00 0.58 0.33 54 1003.8
20260505000006 10 198 11.3 30.6 0.00 0.58 0.33 55 1003.4
20260504235507 10 234 8.0 16.1 0.00 0.99 0.33 54 1003.3
20260504235002 10 218 4.8 12.9 0.00 0.99 0.33 54 1003.2
20260504234501 10 206 4.8 16.1 0.00 0.99 0.33 54 1003.0
20260504234100 10 191 8.0 16.1 0.00 0.99 0.33 54 1002.9
20260504234002 10 191 8.0 16.1 0.00 0.99 0.33 54 1002.9
20260504233559 10 185 6.4 14.5 0.00 0.99 0.33 54 1002.9
20260504233109 10 208 6.4 17.7 0.00 0.99 0.33 54 1002.8
20260504232558 10 180 6.4 20.9 0.00 0.99 0.33 53 1002.8
20260504232056 10 197 9.7 20.9 0.00 0.99 0.33 53 1002.7
20260504231556 10 148 8.0 19.3 0.00 0.99 0.33 53 1002.7
20260504231055 10 188 9.7 17.7 0.00 0.99 0.33 54 1002.7
20260504230555 10 224 6.4 17.7 0.00 0.99 0.33 54 1002.6
20260504230053 10 218 6.4 17.7 0.00 0.99 0.33 54 1002.6
20260504225553 11 218 11.3 17.7 0.00 1.37 0.33 54 1002.5
20260504225052 11 175 8.0 19.3 0.00 1.37 0.33 53 1002.5
20260504224556 11 313 11.3 19.3 0.00 1.37 0.33 53 1002.5
20260504224049 11 182 9.7 19.3 0.00 1.37 0.33 51 1002.6
20260504223548 11 133 4.8 22.5 0.00 1.37 0.33 49 1002.5
20260504223100 11 173 6.4 22.5 0.00 1.37 0.33 48 1002.4
20260504222545 11 180 6.4 19.3 0.00 1.37 0.33 47 1002.4
20260504222045 11 292 6.4 17.7 0.00 1.37 0.33 48 1002.1
20260504221544 12 218 6.4 20.9 0.00 1.37 0.33 48 1002.1
20260504221047 12 132 8.0 27.4 0.00 1.37 0.33 46 1002.0
20260504220542 12 289 8.0 27.4 0.00 1.37 0.33 46 1002.0
20260504220041 12 199 4.8 19.3 0.00 1.37 0.33 46 1002.0
20260504215540 12 92 4.8 22.5 0.00 1.88 0.33 46 1001.9
20260504215045 12 314 6.4 22.5 0.00 1.88 0.33 46 1001.9
20260504214538 12 149 9.7 20.9 0.00 1.88 0.33 46 1002.0
20260504214041 12 14 9.7 20.9 0.00 1.88 0.33 46 1001.9
20260504213538 12 220 4.8 27.4 0.00 1.88 0.33 47 1001.7
20260504213050 12 32 6.4 27.4 0.00 1.88 0.33 46 1001.8
20260504212537 12 69 8.0 27.4 0.00 1.88 0.33 46 1001.8
20260504212035 12 207 11.3 27.4 0.00 1.88 0.33 46 1001.7
20260504211537 12 276 8.0 38.6 0.00 1.88 0.33 45 1001.7
20260504211034 12 337 6.4 38.6 0.00 1.88 0.33 45 1001.6
20260504210536 12 259 6.4 20.9 0.00 1.88 0.33 45 1001.5
20260504210038 12 182 9.7 24.1 0.00 1.88 0.33 45 1001.4
20260504205632 12 171 8.0 24.1 0.00 1.96 0.33 46 1001.4
20260504205030 12 104 9.7 22.5 0.00 1.96 0.33 44 1001.3
20260504204540 12 274 8.0 22.5 0.00 1.96 0.33 45 1001.2
20260504204030 12 329 8.0 24.1 0.00 1.96 0.33 45 1001.2
20260504203526 12 255 12.9 24.1 0.00 1.96 0.33 45 1001.1
20260504203026 12 197 8.0 22.5 0.00 1.96 0.33 46 1001.1
20260504202523 12 203 11.3 24.1 0.00 1.96 0.33 47 1000.9
20260504202022 12 166 11.3 29.0 0.00 1.96 0.33 49 1000.8
20260504201521 12 216 9.7 29.0 0.00 1.96 0.33 50 1000.7
20260504201023 12 194 14.5 29.0 0.00 1.96 0.33 51 1000.5
20260504200518 12 120 12.9 29.0 0.00 1.96 0.33 52 1000.4
20260504200016 12 126 14.5 37.0 0.00 1.96 0.33 55 1000.4
20260504195513 12 116 11.3 37.0 0.00 1.98 0.33 55 1000.3
20260504195016 11 293 9.7 25.7 0.00 1.98 0.33 56 1000.1
20260504194513 12 94 11.3 25.7 0.00 1.98 0.33 57 1000.0
20260504194012 11 162 9.7 29.0 0.00 1.98 0.33 57 999.9
20260504193510 11 336 8.0 29.0 0.00 1.98 0.33 58 999.7
20260504193008 11 320 8.0 29.0 0.00 1.98 0.33 60 999.6
20260504192506 11 195 9.7 20.9 0.00 1.98 0.33 61 999.5
20260504192004 11 151 8.0 30.6 0.00 1.98 0.33 62 999.5
20260504191504 11 243 9.7 30.6 0.00 1.98 0.33 62 999.5
20260504191002 11 179 11.3 30.6 0.00 1.98 0.33 63 999.3
20260504190601 10 194 14.5 30.6 0.00 1.98 0.33 65 999.3
20260504185556 10 337 4.8 24.1 0.00 2.01 0.33 69 999.1
20260504185057 10 149 9.7 24.1 0.00 2.01 0.33 68 999.1
20260504184558 10 223 8.0 22.5 0.00 2.01 0.33 70 999.0
20260504184053 9 170 11.3 43.5 0.00 2.01 0.33 71 998.9
20260504183552 9 152 16.1 43.5 0.00 2.01 0.33 70 998.9
20260504183050 9 36 8.0 20.9 0.00 2.01 0.33 72 998.7
20260504182547 8 215 11.3 20.9 0.00 2.01 0.33 73 998.5
20260504182046 8 27 9.7 22.5 0.00 2.01 0.33 74 998.6
20260504181547 8 296 8.0 22.5 0.00 2.01 0.33 75 998.7
20260504181044 8 155 6.4 33.8 0.00 2.01 0.33 75 998.5
20260504180542 8 184 11.3 33.8 0.00 2.01 0.33 76 998.3
20260504180145 8 241 8.0 25.7 0.00 2.01 0.33 76 998.2
20260504175538 8 257 16.1 25.7 0.00 2.01 0.33 75 998.2
20260504175038 8 231 8.0 20.9 0.00 2.01 0.33 76 998.2
20260504174638 8 160 8.0 20.9 0.00 2.01 0.33 77 998.2
20260504174036 8 24 11.3 27.4 0.00 2.01 0.33 77 998.2
20260504173534 8 329 6.4 20.9 0.00 2.01 0.33 78 998.0
20260504173033 7 187 6.4 17.7 0.00 2.01 0.33 80 997.9
20260504172531 7 166 8.0 22.5 0.00 2.01 0.33 81 997.8
20260504172031 7 178 8.0 22.5 0.00 2.01 0.33 81 997.8
20260504171528 7 337 8.0 19.3 0.00 2.01 0.33 82 997.7
20260504171027 7 325 9.7 20.9 0.00 2.01 0.33 82 997.6
20260504170526 6 175 9.7 27.4 0.00 2.01 0.33 82 997.5
20260504151059 6 16 6.4 22.5 0.05 2.01 0.33 85 994.9
20260504150557 6 207 9.7 22.5 0.05 2.01 0.33 84 994.6
20260504150103 5 53 8.0 20.9 0.05 2.01 0.33 85 994.5
20260504141043 5 227 9.7 30.6 0.00 1.96 0.30 85 993.0
20260504140542 5 168 6.4 22.5 0.00 1.96 0.30 84 992.9
20260504130527 3 123 9.7 27.4 0.03 1.96 0.30 86 990.4
20260504110508 3 204 9.7 27.4 0.00 1.93 0.28 88 985.1
20260504100507 3 138 9.7 32.2 0.05 1.93 0.28 90 982.0
20260504082005 3 123 12.9 32.2 0.03 1.88 0.20 91 978.0
20260504081508 3 348 14.5 32.2 0.03 1.88 0.20 91 977.9
20260504081005 3 7 17.7 32.2 0.03 1.88 0.20 91 977.8
20260504080509 3 180 14.5 35.4 0.05 1.88 0.20 91 977.8
20260504050505 3 140 24.1 40.2 0.05 1.75 0.08 93 974.9
20260504050009 3 130 22.5 41.8 0.05 1.75 0.08 93 975.0
20260504045606 3 164 24.1 41.8 0.05 1.75 0.08 93 975.2